Tracking 19909 objects as of 23-Oct-2019
HD Live streaming from Space Station
objects crossing your sky now

DICE 1

Track DICE 1 now!
10-day predictions
DICE 1 is classified as:


NORAD ID: 37851
Int'l Code: 2011-061B
Perigee: 437.0 km
Apogee: 689.0 km
Inclination: 101.7 °
Period: 95.8 minutes
Semi major axis: 6934 km
RCS: 0.0809 m2 (small)
Launch date: October 28, 2011
Source: United States (US)
Launch site: AIR FORCE WESTERN TEST RANGE (AFWTR)
aabbcc
Your satellite tracking list
Your tracking list is empty




NASA's NSSDC Master Catalog

Two Line Element Set (TLE):
1 37851U 11061B   19295.88091309 +.00001230 +00000-0 +70790-4 0  9990
2 37851 101.7367 250.0385 0181738 086.5003 275.6974 15.03578772435067
Source of the keplerian elements: AFSPC